CAPE
1408 1570 1738 1876 1948 1938 1924 1872 1610 993 623 569 389 386 306 325 257 419 479 592 628 445 335 140 9 0 0 0 0 0 0 0
1309 1302 1414 1723 1880 1992 1848 1740 1421 821 346 157 207 171 133 31 182 269 338 507 482 343 180 48 3 0 0 0 0 0 0 0
1045 1149 1173 1197 1262 1465 1843 1646 980 722 415 158 125 133 171 183 120 174 282 368 352 252 81 1 0 0 0 0 0 0 0 0
901 1020 1023 956 791 903 1028 1352 921 462 396 193 73 69 123 69 66 140 210 287 213 131 6 3 0 0 0 0 0 0 0 0
607 667 562 563 721 736 748 725 990 505 309 164 53 72 46 0 7 92 115 125 36 3 3 11 0 0 0 0 0 0 0 0
527 366 317 492 636 650 416 414 547 461 298 114 54 53 45 5 89 145 71 8 0 0 0 8 0 0 0 0 0 0 0 0
555 340 240 468 623 522 265 194 266 232 206 76 69 52 32 21 103 134 73 0 0 0 0 1 0 0 0 0 0 0 0 0
584 353 166 403 328 160 106 85 77 75 103 96 64 50 28 42 77 83 103 36 0 0 0 0 0 0 0 0 0 0 0 0
536 125 73 46 14 21 29 57 35 20 35 66 77 55 34 78 79 56 84 42 0 0 0 0 0 0 0 0 0 0 0 0
223 59 0 0 0 5 17 17 32 16 12 3 58 40 40 74 22 19 67 29 0 0 0 0 0 0 0 0 0 0 0 0
198 13 0 0 0 10 18 11 11 0 4 16 6 2 69 39 29 2 58 0 0 0 0 0 0 0 0 0 0 0 0 0
98 3 0 0 0 4 20 14 15 0 44 48 3 3 5 47 12 25 71 0 0 0 0 0 0 0 0 0 0 0 0 0
42 13 0 0 2 4 11 37 3 16 44 35 10 7 9 36 29 11 2 0 0 0 0 0 0 0 0 0 0 0 0 0
31 18 0 0 0 0 0 0 6 5 13 35 15 8 11 44 52 32 0 0 0 0 0 0 0 0 0 0 0 0 0 0
52 0 0 0 0 0 0 0 0 10 5 14 16 9 35 71 67 14 0 0 0 0 0 0 0 0 0 0 0 0 0 0
77 0 0 0 0 0 0 0 0 0 0 6 15 44 47 57 65 0 0 0 0 0 0 0 0 0 0 0 0 0 0 0
72 0 0 0 0 0 0 0 0 0 8 2 15 56 55 57 38 14 0 0 0 0 0 0 0 0 0 0 4 20 3 10
57 0 0 0 0 0 1 0 0 0 15 1 9 38 24 31 56 22 6 7 23 20 48 42 14 3 0 0 11 76 57 56
5 0 7 0 0 0 0 3 3 2 0 11 21 24 7 9 50 31 0 41 72 107 108 100 100 14 4 12 9 26 47 34
0 0 5 0 0 0 0 1 0 2 0 11 21 16 17 13 5 5 15 35 53 79 100 99 11 20 24 30 18 12 35 45
CIN
-146 -110 -53 -18 -7 -4 -1 -1 -11 -9 -5 -7 -136 -116 -16 -53 -41 -12 -21 -15 -13 -9 -8 -39 -179 0 0 0 0 0 0 0
-135 -110 -84 -18 -3 0 -1 -5 -25 -1 -25 -27 -57 -67 -109 -97 -94 -32 -15 -14 -11 -5 -14 -75 -90 0 0 0 0 0 0 0
-184 -136 -96 -52 -36 -5 0 -3 -7 -25 -17 -12 -64 -76 -32 -61 -139 -76 -8 -23 -9 -12 -45 -1 0 0 0 0 0 0 0 0
-216 -149 -116 -71 -77 -51 -17 0 -6 -21 -20 -46 -31 -40 -41 -98 -81 -71 -3 -28 -12 -11 -39 -4 0 0 0 0 0 0 0 0
-265 -206 -188 -141 -77 -57 -26 -6 0 -1 -19 -33 -33 -16 -31 0 -132 -68 -16 -19 -29 -1 -1 -2 -13 0 0 0 0 0 0 0
-252 -240 -205 -142 -61 -33 -30 -14 -2 -4 -3 -18 -16 -20 -1 -126 -57 -6 -11 -28 0 0 0 -5 0 0 0 0 0 0 0 0
-199 -165 -180 -102 -26 -7 -5 -8 -1 -1 -1 -1 0 -7 -12 -101 -26 -7 -3 0 0 0 0 0 0 0 0 0 0 0 0 0
-193 -155 -176 -61 -13 -15 -50 -57 -62 0 -2 0 -5 -4 -40 -72 -39 -37 -45 -20 0 0 0 0 0 0 0 0 0 0 0 0
-196 -131 -182 -137 -134 -115 -2 0 0 -3 -3 0 -4 -4 -18 -33 -66 -83 -75 -37 0 0 -1 0 0 0 0 0 0 0 0 0
-225 -103 0 0 0 -1 -10 0 0 0 -1 -1 0 -1 -2 0 -40 0 -65 -53 0 0 0 0 0 0 0 0 0 0 0 0
-87 -331 0 0 0 0 0 -1 0 -3 -1 -4 0 0 0 0 0 -15 -22 0 0 0 0 0 0 0 0 0 0 0 0 0
-68 -42 0 0 -1 0 0 0 0 0 0 0 0 0 0 0 -1 -22 -14 0 0 0 0 0 0 0 0 0 0 0 0 0
-83 -64 0 0 0 0 0 -50 0 -53 0 -1 0 0 -1 -25 -27 -17 -1 0 0 0 0 0 0 0 0 0 0 0 0 0
-85 -44 0 0 0 0 0 0 0 0 -9 0 -2 -1 -16 -10 -10 -4 0 0 0 0 0 0 0 0 0 0 0 0 0 0
-81 0 0 0 0 0 0 0 0 0 0 -15 0 -2 -10 -1 -6 -2 0 0 0 0 0 0 0 0 0 0 0 0 0 0
-82 0 0 0 0 0 0 0 0 0 0 0 0 -4 -4 -5 -7 0 0 0 0 0 0 0 0 0 0 0 0 0 0 0
-60 0 0 0 0 0 0 0 0 0 -1 -1 0 -1 -2 -5 -3 -1 0 0 0 0 -1 0 0 0 0 0 -168 -128 -149 -77
-61 0 0 0 0 0 0 0 0 0 0 0 0 0 0 -1 -1 -2 -51 -10 -25 -31 -17 -32 -72 -48 -6 0 -120 -74 -81 -29
-21 0 0 0 0 0 0 0 0 0 0 0 0 0 -4 -4 -4 -3 0 -39 -6 -5 -5 -9 -4 -17 -1 -50 -106 -39 -23 -14
0 0 0 0 0 0 0 0 0 0 0 -5 0 0 -1 -6 0 0 -4 -4 -17 -6 -2 -1 0 -5 -3 -4 -4 -119 -69 -32
Wind_Speed
28 30 30 31 27 26 30 29 34 50 43 42 42 54 31 37 32 33 31 34 30 26 22 25 nan nan nan nan nan nan nan nan
31 28 28 28 26 27 31 33 37 51 42 36 38 44 34 nan 35 22 27 29 30 27 23 nan nan nan nan nan nan nan nan nan
31 29 30 28 29 27 27 25 34 42 37 30 34 31 26 35 35 28 32 29 30 26 nan nan nan nan nan nan nan nan nan nan
28 30 34 34 32 29 28 27 31 26 21 25 nan nan 27 nan nan 32 26 26 26 24 nan nan nan nan nan nan nan nan nan nan
25 28 36 38 37 34 30 28 27 21 21 17 nan nan nan nan nan nan 23 21 nan nan nan nan nan nan nan nan nan nan nan nan
24 25 35 40 38 38 29 27 25 23 19 22 nan nan nan nan nan 24 nan nan nan nan nan nan nan nan nan nan nan nan nan nan
24 26 33 35 35 35 29 25 27 23 21 nan nan nan nan nan 38 43 nan nan nan nan nan nan nan nan nan nan nan nan nan nan
26 28 32 33 30 31 24 nan nan nan 29 nan nan nan nan nan nan nan 31 nan nan nan nan nan nan nan nan nan nan nan nan nan
29 30 nan nan nan nan nan nan nan nan nan nan nan nan nan nan nan nan nan nan nan nan nan nan nan nan nan nan nan nan nan nan
30 nan nan nan nan nan nan nan nan nan nan nan nan nan nan nan nan nan nan nan nan nan nan nan nan nan nan nan nan nan nan nan
31 nan nan nan nan nan nan nan nan nan nan nan nan nan nan nan nan nan nan nan nan nan nan nan nan nan nan nan nan nan nan nan
nan nan nan nan nan nan nan nan nan nan nan nan nan nan nan nan nan nan nan nan nan nan nan nan nan nan nan nan nan nan nan nan
nan nan nan nan nan nan nan nan nan nan nan nan nan nan nan nan nan nan nan nan nan nan nan nan nan nan nan nan nan nan nan nan
nan nan nan nan nan nan nan nan nan nan nan nan nan nan nan nan nan nan nan nan nan nan nan nan nan nan nan nan nan nan nan nan
nan nan nan nan nan nan nan nan nan nan nan nan nan nan nan nan nan nan nan nan nan nan nan nan nan nan nan nan nan nan nan nan
nan nan nan nan nan nan nan nan nan nan nan nan nan nan nan nan nan nan nan nan nan nan nan nan nan nan nan nan nan nan nan nan
nan nan nan nan nan nan nan nan nan nan nan nan nan nan nan nan nan nan nan nan nan nan nan nan nan nan nan nan nan nan nan nan
nan nan nan nan nan nan nan nan nan nan nan nan nan nan nan nan nan nan nan nan nan nan nan nan nan nan nan nan nan nan nan nan
nan nan nan nan nan nan nan nan nan nan nan nan nan nan nan nan nan nan nan nan nan 37 43 40 35 nan nan nan nan nan nan nan
nan nan nan nan nan nan nan nan nan nan nan nan nan nan nan nan nan nan nan nan nan nan 35 nan nan nan nan nan nan nan nan nan
Wind_Direction
320 322 324 321 315 314 318 301 285 280 282 282 266 283 272 273 271 249 235 242 242 241 248 254 nan nan nan nan nan nan nan nan
319 325 323 317 303 300 312 315 283 277 272 277 278 290 275 nan 272 232 248 251 242 241 242 nan nan nan nan nan nan nan nan nan
318 323 323 322 314 301 304 312 314 313 300 279 260 261 275 270 263 269 245 255 244 241 nan nan nan nan nan nan nan nan nan nan
321 324 320 318 314 304 287 292 294 310 296 283 nan nan 258 nan nan 240 253 254 246 240 nan nan nan nan nan nan nan nan nan nan
329 324 314 315 312 308 289 278 280 295 289 258 nan nan nan nan nan nan 225 251 nan nan nan nan nan nan nan nan nan nan nan nan
330 325 316 316 307 304 296 281 274 270 272 255 nan nan nan nan nan 217 nan nan nan nan nan nan nan nan nan nan nan nan nan nan
328 324 315 312 305 301 296 281 282 266 275 nan nan nan nan nan 226 227 nan nan nan nan nan nan nan nan nan nan nan nan nan nan
323 321 316 312 306 306 289 nan nan nan 279 nan nan nan nan nan nan nan 219 nan nan nan nan nan nan nan nan nan nan nan nan nan
322 321 nan nan nan nan nan nan nan nan nan nan nan nan nan nan nan nan nan nan nan nan nan nan nan nan nan nan nan nan nan nan
315 nan nan nan nan nan nan nan nan nan nan nan nan nan nan nan nan nan nan nan nan nan nan nan nan nan nan nan nan nan nan nan
312 nan nan nan nan nan nan nan nan nan nan nan nan nan nan nan nan nan nan nan nan nan nan nan nan nan nan nan nan nan nan nan
nan nan nan nan nan nan nan nan nan nan nan nan nan nan nan nan nan nan nan nan nan nan nan nan nan nan nan nan nan nan nan nan
nan nan nan nan nan nan nan nan nan nan nan nan nan nan nan nan nan nan nan nan nan nan nan nan nan nan nan nan nan nan nan nan
nan nan nan nan nan nan nan nan nan nan nan nan nan nan nan nan nan nan nan nan nan nan nan nan nan nan nan nan nan nan nan nan
nan nan nan nan nan nan nan nan nan nan nan nan nan nan nan nan nan nan nan nan nan nan nan nan nan nan nan nan nan nan nan nan
nan nan nan nan nan nan nan nan nan nan nan nan nan nan nan nan nan nan nan nan nan nan nan nan nan nan nan nan nan nan nan nan
nan nan nan nan nan nan nan nan nan nan nan nan nan nan nan nan nan nan nan nan nan nan nan nan nan nan nan nan nan nan nan nan
nan nan nan nan nan nan nan nan nan nan nan nan nan nan nan nan nan nan nan nan nan nan nan nan nan nan nan nan nan nan nan nan
nan nan nan nan nan nan nan nan nan nan nan nan nan nan nan nan nan nan nan nan nan 249 249 251 250 nan nan nan nan nan nan nan
nan nan nan nan nan nan nan nan nan nan nan nan nan nan nan nan nan nan nan nan nan nan 247 nan nan nan nan nan nan nan nan nan